• In Netherlands
  • List of Countries
  • For 7 days
  • Water Temperature
  • Satellite Maps
  • Weather Map
  • Weather Widgets
  • user-avatar
    Login

    Hourly Weather Artashat

    Today, 24 May, Thursday

    Time Temperature Precipitation Wind Pressure Humidity
    00:00 +12°C° 0 mm 2 mps 604 mmHg 59%
    01:00 +12°C° 0.1 mm 1 mps 604 mmHg 61%
    02:00 +11°C° 0.1 mm 1 mps 604 mmHg 62%
    03:00 +11°C° 0 mm 1 mps 603 mmHg 62%
    04:00 +11°C° 0 mm 1 mps 604 mmHg 61%
    05:00 +12°C° 0 mm 1 mps 604 mmHg 61%
    06:00 +12°C° 0 mm 1 mps 604 mmHg 61%
    07:00 +13°C° 0 mm 2 mps 604 mmHg 55%
    08:00 +14°C° 0 mm 2 mps 604 mmHg 50%
    09:00 +16°C° 0 mm 2 mps 605 mmHg 45%
    10:00 +17°C° 0.1 mm 3 mps 605 mmHg 43%
    11:00 +18°C° 0.1 mm 3 mps 605 mmHg 40%
    12:00 +19°C° 0.1 mm 3 mps 605 mmHg 37%
    13:00 +19°C° 0.2 mm 3 mps 605 mmHg 36%
    14:00 +20°C° 0.2 mm 4 mps 605 mmHg 35%
    15:00 +18°C° 0 mm 4 mps 604 mmHg 38%
    16:00 +18°C° 0.1 mm 4 mps 604 mmHg 40%
    17:00 +18°C° 0.1 mm 3 mps 604 mmHg 41%
    18:00 +17°C° 0.1 mm 3 mps 604 mmHg 43%
    19:00 +16°C° 0.1 mm 2 mps 603 mmHg 46%
    20:00 +15°C° 0.1 mm 2 mps 603 mmHg 50%
    21:00 +14°C° 0.1 mm 1 mps 603 mmHg 54%
    22:00 +13°C° 0 mm 1 mps 602 mmHg 56%
    23:00 +12°C° 0 mm 1 mps 602 mmHg 58%

    Tomorrow, 25 May, Friday

    Time Temperature Precipitation Wind Pressure Humidity
    00:00 +12°C° 0 mm 1 mps 601 mmHg 60%
    01:00 +11°C° 0 mm 1 mps 601 mmHg 61%
    02:00 +11°C° 0 mm 1 mps 601 mmHg 63%
    03:00 +10°C° 0 mm 1 mps 600 mmHg 64%
    04:00 +11°C° 0 mm 1 mps 601 mmHg 63%
    05:00 +11°C° 0 mm 1 mps 601 mmHg 62%
    06:00 +12°C° 0 mm 1 mps 601 mmHg 61%
    07:00 +13°C° 0 mm 1 mps 601 mmHg 57%
    08:00 +14°C° 0 mm 1 mps 602 mmHg 52%
    09:00 +16°C° 0 mm 1 mps 602 mmHg 48%
    10:00 +18°C° 0.2 mm 1 mps 602 mmHg 45%
    11:00 +18°C° 0.2 mm 2 mps 602 mmHg 43%
    12:00 +19°C° 0.2 mm 2 mps 602 mmHg 40%
    13:00 +19°C° 0.3 mm 2 mps 602 mmHg 39%
    14:00 +19°C° 0.3 mm 2 mps 602 mmHg 38%
    15:00 +20°C° 0.3 mm 2 mps 602 mmHg 37%
    16:00 +19°C° 0.3 mm 2 mps 602 mmHg 39%
    17:00 +19°C° 0.3 mm 2 mps 602 mmHg 41%
    18:00 +18°C° 0.3 mm 2 mps 602 mmHg 43%
    19:00 +17°C° 0.2 mm 2 mps 602 mmHg 47%
    20:00 +16°C° 0.2 mm 2 mps 602 mmHg 51%
    21:00 +15°C° 0.2 mm 2 mps 602 mmHg 55%
    22:00 +14°C° 0 mm 2 mps 601 mmHg 57%
    23:00 +13°C° 0 mm 2 mps 601 mmHg 58%

    Day after tomorrow, 26 May, Saturday

    Time Temperature Precipitation Wind Pressure Humidity
    00:00 +13°C° 0 mm 1 mps 601 mmHg 59%
    01:00 +12°C° 0 mm 1 mps 601 mmHg 60%
    02:00 +12°C° 0 mm 1 mps 601 mmHg 62%
    03:00 +11°C° 0 mm 1 mps 600 mmHg 63%
    04:00 +12°C° 0 mm 1 mps 601 mmHg 62%
    05:00 +12°C° 0 mm 1 mps 601 mmHg 60%
    06:00 +13°C° 0 mm 1 mps 602 mmHg 59%
    07:00 +15°C° 0 mm 1 mps 602 mmHg 53%
    08:00 +16°C° 0 mm 1 mps 603 mmHg 48%
    09:00 +19°C° 0 mm 1 mps 603 mmHg 43%
    10:00 +19°C° 0 mm 2 mps 604 mmHg 40%
    11:00 +20°C° 0 mm 2 mps 604 mmHg 37%
    12:00 +21°C° 0 mm 2 mps 604 mmHg 34%
    13:00 +21°C° 0 mm 2 mps 604 mmHg 33%
    14:00 +22°C° 0 mm 3 mps 604 mmHg 32%
    15:00 +22°C° 0 mm 3 mps 604 mmHg 30%
    16:00 +21°C° 0.1 mm 3 mps 604 mmHg 33%
    17:00 +21°C° 0.1 mm 3 mps 604 mmHg 35%
    18:00 +20°C° 0.1 mm 3 mps 604 mmHg 38%
    19:00 +18°C° 0.1 mm 2 mps 603 mmHg 42%
    20:00 +17°C° 0.1 mm 2 mps 603 mmHg 46%
    21:00 +15°C° 0.1 mm 2 mps 603 mmHg 51%
    22:00 +15°C° 0 mm 1 mps 603 mmHg 52%
    23:00 +14°C° 0 mm 1 mps 603 mmHg 54%

    27 May, Sunday

    Time Temperature Precipitation Wind Pressure Humidity
    00:00 +13°C° 0 mm 1 mps 603 mmHg 55%
    01:00 +13°C° 0 mm 1 mps 603 mmHg 56%
    02:00 +13°C° 0 mm 1 mps 603 mmHg 57%
    03:00 +12°C° 0 mm 1 mps 603 mmHg 58%
    04:00 +13°C° 0 mm 1 mps 604 mmHg 57%
    05:00 +14°C° 0 mm 1 mps 604 mmHg 56%
    06:00 +14°C° 0 mm 1 mps 605 mmHg 56%
    07:00 +16°C° 0 mm 1 mps 605 mmHg 49%
    08:00 +18°C° 0 mm 1 mps 606 mmHg 43%
    09:00 +20°C° 0 mm 1 mps 607 mmHg 37%
    10:00 +21°C° 0 mm 1 mps 607 mmHg 34%
    11:00 +22°C° 0 mm 1 mps 607 mmHg 32%
    12:00 +23°C° 0 mm 1 mps 608 mmHg 29%
    13:00 +23°C° 0 mm 2 mps 608 mmHg 28%
    14:00 +24°C° 0 mm 2 mps 608 mmHg 27%
    15:00 +24°C° 0 mm 2 mps 607 mmHg 27%
    16:00 +23°C° 0 mm 2 mps 607 mmHg 29%
    17:00 +23°C° 0 mm 2 mps 607 mmHg 31%
    18:00 +21°C° 0 mm 2 mps 607 mmHg 33%
    19:00 +19°C° 0 mm 2 mps 607 mmHg 38%
    20:00 +17°C° 0 mm 2 mps 607 mmHg 44%
    21:00 +15°C° 0 mm 1 mps 607 mmHg 49%
    22:00 +15°C° 0 mm 1 mps 606 mmHg 52%
    23:00 +14°C° 0 mm 1 mps 606 mmHg 55%

    28 May, Monday

    Time Temperature Precipitation Wind Pressure Humidity
    00:00 +14°C° 0 mm 1 mps 606 mmHg 57%
    01:00 +13°C° 0 mm 1 mps 606 mmHg 59%
    02:00 +12°C° 0 mm 1 mps 605 mmHg 61%
    03:00 +12°C° 0 mm 1 mps 605 mmHg 63%
    04:00 +13°C° 0 mm 1 mps 606 mmHg 62%
    05:00 +13°C° 0 mm 1 mps 606 mmHg 60%
    06:00 +14°C° 0 mm 1 mps 606 mmHg 59%
    07:00 +16°C° 0 mm 1 mps 607 mmHg 53%
    08:00 +18°C° 0 mm 1 mps 607 mmHg 47%
    09:00 +19°C° 0 mm 2 mps 607 mmHg 41%
    10:00 +20°C° 0 mm 2 mps 607 mmHg 38%
    11:00 +21°C° 0 mm 2 mps 607 mmHg 35%
    12:00 +23°C° 0 mm 2 mps 607 mmHg 32%
    13:00 +24°C° 0 mm 2 mps 607 mmHg 31%
    14:00 +24°C° 0 mm 2 mps 607 mmHg 30%
    15:00 +25°C° 0 mm 2 mps 607 mmHg 29%
    16:00 +24°C° 0.1 mm 2 mps 606 mmHg 31%
    17:00 +23°C° 0.1 mm 2 mps 606 mmHg 34%
    18:00 +23°C° 0.1 mm 2 mps 606 mmHg 36%
    19:00 +20°C° 0.2 mm 2 mps 605 mmHg 41%
    20:00 +18°C° 0.2 mm 2 mps 605 mmHg 46%
    21:00 +18°C° 0.2 mm 1 mps 605 mmHg 51%
    22:00 +16°C° 0.1 mm 1 mps 605 mmHg 53%
    23:00 +15°C° 0.1 mm 1 mps 604 mmHg 55%

    29 May, Tuesday

    Time Temperature Precipitation Wind Pressure Humidity
    00:00 +15°C° 0.1 mm 1 mps 604 mmHg 57%
    01:00 +14°C° 0 mm 1 mps 604 mmHg 58%
    02:00 +14°C° 0 mm 1 mps 603 mmHg 60%
    03:00 +13°C° 0 mm 1 mps 603 mmHg 62%
    04:00 +14°C° 0 mm 1 mps 604 mmHg 61%
    05:00 +14°C° 0 mm 1 mps 604 mmHg 60%
    06:00 +15°C° 0 mm 1 mps 604 mmHg 59%
    07:00 +18°C° 0 mm 1 mps 605 mmHg 52%
    08:00 +19°C° 0 mm 1 mps 605 mmHg 45%
    09:00 +20°C° 0 mm 1 mps 606 mmHg 39%
    10:00 +21°C° 0 mm 2 mps 606 mmHg 36%
    11:00 +23°C° 0 mm 2 mps 606 mmHg 33%
    12:00 +24°C° 0 mm 2 mps 606 mmHg 30%
    13:00 +24°C° 0 mm 2 mps 606 mmHg 30%
    14:00 +24°C° 0 mm 2 mps 605 mmHg 30%
    15:00 +24°C° 0 mm 3 mps 605 mmHg 30%
    16:00 +22°C° 0.1 mm 3 mps 605 mmHg 33%
    17:00 +22°C° 0.1 mm 3 mps 605 mmHg 37%
    18:00 +21°C° 0.1 mm 2 mps 604 mmHg 41%
    19:00 +19°C° 0.6 mm 3 mps 604 mmHg 48%
    20:00 +18°C° 0.6 mm 3 mps 604 mmHg 55%
    21:00 +16°C° 0.6 mm 3 mps 604 mmHg 62%
    22:00 +15°C° 1.2 mm 2 mps 604 mmHg 66%
    23:00 +14°C° 1.2 mm 2 mps 604 mmHg 71%
    Show more